Hourly Data Report for October 21, 2014

All times are specified in Local Standard Time (LST). Add 1 hour to adjust for Daylight Saving Time where and when it is observed.

TORONTO INTL A
ONTARIO

43°40'36.000" N
79°37'50.000" W
173.40 m
6158731
71624
YYZ

Download Data

Hourly Data (October 2014)
Hourly Data Report for October 21, 2014
Temp Definition
°C
Dew Point Temp Definition
°C
Rel Hum Definition
%
Wind Dir Definition
10's deg

Wind Spd Definition
km/h
Visibility Definition
km
Stn Press Definition
kPa
Hmdx Definition


Wind Chill Definition


Weather Definition


TIME
00:00 Legend Double Dagger 10.4 9.0 91 29 7 16.1 98.80     LegendNANA
01:00 Legend Double Dagger 10.6 9.0 90 29 9 16.1 98.79     Cloudy
02:00 Legend Double Dagger 10.4 9.0 91 28 9 16.1 98.80     LegendNANA
03:00 Legend Double Dagger 9.9 8.8 93 28 9 16.1 98.78     LegendNANA
04:00 Legend Double Dagger 9.8 8.7 93 28 8 19.3 98.79     Cloudy
05:00 Legend Double Dagger 9.9 8.4 90 28 8 19.3 98.82     LegendNANA
06:00 Legend Double Dagger 10.5 8.3 86 30 10 19.3 98.85     LegendNANA
07:00 Legend Double Dagger 10.4 8.5 88 31 11 16.1 98.91     Cloudy
08:00 Legend Double Dagger 10.6 8.7 88 36 17 16.1 98.98     LegendNANA
09:00 Legend Double Dagger 10.9 9.2 89 2 13 19.3 99.02     LegendNANA
10:00 Legend Double Dagger 10.6 8.9 89 1 23 9.7 99.08     Rain Showers,Fog
11:00 Legend Double Dagger 9.2 7.7 90 1 26 19.3 99.18     Rain Showers
12:00 Legend Double Dagger 8.0 6.6 91 1 28 19.3 99.24     LegendNANA
13:00 Legend Double Dagger 8.3 6.3 87 1 26 24.1 99.29     Cloudy
14:00 Legend Double Dagger 8.5 6.0 84 2 26 24.1 99.35     LegendNANA
15:00 Legend Double Dagger 7.5 6.1 91 1 28 6.4 99.45     Rain Showers,Fog
16:00 Legend Double Dagger 7.7 6.2 90 1 20 9.7 99.53     Rain Showers,Fog
17:00 Legend Double Dagger 7.5 5.8 89 2 23 24.1 99.62     LegendNANA
18:00 Legend Double Dagger 7.2 5.2 87 2 27 24.1 99.74     Rain Showers
19:00 Legend Double Dagger 6.4 4.9 90 2 32 9.7 99.82     Rain Showers
20:00 Legend Double Dagger 6.4 4.6 88 2 25 24.1 99.91     Rain Showers
21:00 Legend Double Dagger 6.4 4.1 85 2 32 24.1 99.99     LegendNANA
22:00 Legend Double Dagger 6.1 3.9 86 2 21 24.1 100.05     Rain Showers
23:00 Legend Double Dagger 6.3 2.9 79 3 23 24.1 100.07     Rain Showers

Notes on Data Quality.

Legend

  • E = Estimated
  • M = Missing
  • NA = Not Available
  • ‡ = Partner data that is not subject to review by the National Climate Archives
Date modified: